Location: *
(45.9500°N, 9.0833°E)
Time: 05:42:15
(UTC+00:00)

SR - Pass Details

Date: 14 June 2021
Orbit: 577 x 878 km, 66.7° (Epoch: 24 July)

Event Time Altitude Azimuth Distance (km) Brightness Sun altitude
Rises 00:09:08 0° 331° (NNW) 3,384 ? -20.0°
Reaches altitude 10° 00:12:23 10° 348° (NNW) 2,397 ? -19.9°
Maximum altitude 00:16:18 19° 34° (NNE) 1,764 ? -19.8°
Drops below altitude 10° 00:20:00 10° 79° (E) 2,249 ? -19.6°
Sets 00:22:55 0° 98° (E) 3,106 ? -19.5°
